Beaufort, SC

3:30 PM EDT on September 30, 2016 (GMT -0400)
Beaufort Marine Corps Air Station

Weather History for KNBC - April, 2013

Change the Weather History Date:

Monday, April 15, 2013

  Actual Average Record
Temperature  
Mean Temperature 67 °F -  
Max Temperature 71 °F 76 °F 92 °F (1972)
Min Temperature 63 °F 57 °F 35 °F (1950)
Cooling Degree Days 2    
Growing Degree Days 17 (Base 50)    
Moisture  
Dew Point 62 °F    
Average Humidity 86    
Maximum Humidity 94    
Minimum Humidity 73    
Precipitation  
Precipitation 0.37 in - - ()
Sea Level Pressure  
Sea Level Pressure 30.01 in    
Wind  
Wind Speed 7 mph (ENE)    
Max Wind Speed 17 mph    
Max Gust Speed 29 mph    
Visibility 8 miles    
Events      
Averages and records for this station are not official NWS values.
T = Trace of Precipitation, MM = Missing Value Source: NWS Daily Summary

Daily Weather History Graph

Daily Weather History Graph

Search for Another Location

Airport or City:

Trip Planner

Search our weather history database for the weather conditions in past years. The results will help you decide how hot, cold, wet, or windy it might be!

Date:

Astronomy

Apr. 15, 2013 Rise Set
Actual Time 6:53 AM EDT 7:52 PM EDT
Civil Twilight 6:28 AM EDT 8:18 PM EDT
Nautical Twilight 5:58 AM EDT 8:48 PM EDT
Astronomical Twilight 5:27 AM EDT 9:18 PM EDT
Moon 10:27 AM EDT (4/15) No Moon Set
Length of Visible Light 13h 50m
Length of Day
12h 59m
Waxing Crescent, 24% of the Moon is Illuminated
Apr 15
Waxing Crescent
Apr 18
First Quarter
Apr 25
Full
May 2
Last Quarter
May 9
New

Hourly Weather History & Observations

Time (EDT) Temp. Dew Point Humidity Pressure Visibility Wind Dir Wind Speed Gust Speed Precip Events Conditions
12:07 AM 64.4 °F 60.8 °F 88% 29.96 in 2.0 mi East 6.9 mph - 0.14 in   Overcast
12:30 AM 64.4 °F 60.8 °F 88% 29.93 in 1.8 mi ESE 15.0 mph - 0.35 in   Overcast
12:37 AM 64.4 °F 60.8 °F 88% 29.93 in 3.0 mi ESE 17.3 mph 24.2 mph 0.36 in   Overcast
12:56 AM 63.0 °F 59.0 °F 87% 29.92 in 6.0 mi ESE 17.3 mph 28.8 mph 0.37 in   Overcast
1:56 AM 64.0 °F 60.1 °F 87% 29.93 in 10.0 mi East 8.1 mph - N/A   Overcast
2:36 AM 64.4 °F 60.8 °F 88% 29.90 in 10.0 mi East 5.8 mph - N/A   Overcast
2:56 AM 64.0 °F 60.1 °F 87% 29.90 in 10.0 mi East 8.1 mph - N/A   Overcast
3:41 AM 64.4 °F 60.8 °F 88% 29.89 in 10.0 mi East 6.9 mph - N/A   Mostly Cloudy
3:56 AM 64.0 °F 61.0 °F 90% 29.89 in 10.0 mi East 8.1 mph - N/A   Overcast
4:54 AM 64.4 °F 60.8 °F 88% 29.90 in 10.0 mi ENE 3.5 mph - N/A   Overcast
4:56 AM 64.9 °F 61.0 °F 87% 29.91 in 10.0 mi Calm Calm - N/A   Overcast
5:41 AM 64.4 °F 62.6 °F 94% 29.91 in 10.0 mi NNE 8.1 mph - N/A   Overcast
5:56 AM 64.9 °F 62.1 °F 90% 29.91 in 10.0 mi NNE 4.6 mph - N/A   Overcast
6:08 AM 64.4 °F 62.6 °F 94% 29.92 in 10.0 mi North 5.8 mph - N/A   Overcast
6:25 AM 64.4 °F 62.6 °F 94% 29.93 in 10.0 mi NNW 5.8 mph - N/A   Overcast
6:52 AM 64.4 °F 60.8 °F 88% 29.94 in 5.0 mi North 5.8 mph - N/A   Overcast
6:56 AM 64.0 °F 61.0 °F 90% 29.94 in 5.0 mi North 5.8 mph - N/A   Overcast
7:56 AM 64.0 °F 62.1 °F 93% 29.99 in 10.0 mi NNW 4.6 mph - N/A   Overcast
8:50 AM 64.4 °F 60.8 °F 88% 30.00 in 5.0 mi NNW 6.9 mph - N/A   Overcast
8:56 AM 64.0 °F 61.0 °F 90% 30.00 in 5.0 mi NNW 6.9 mph - N/A   Overcast
9:56 AM 64.0 °F 61.0 °F 90% 30.02 in 5.0 mi North 6.9 mph - N/A   Overcast
10:56 AM 66.0 °F 63.0 °F 90% 30.04 in 10.0 mi NNE 5.8 mph - N/A   Overcast
11:56 AM 66.9 °F 63.0 °F 87% 30.06 in 10.0 mi ENE 3.5 mph - N/A   Overcast
12:56 PM 68.0 °F 64.0 °F 87% 30.06 in 10.0 mi East 4.6 mph - N/A   Overcast
1:25 PM 68.0 °F 64.4 °F 88% 30.06 in 5.0 mi ESE 5.8 mph - N/A   Overcast
1:56 PM 68.0 °F 64.0 °F 87% 30.07 in 4.0 mi SE 4.6 mph - N/A   Overcast
2:06 PM 69.8 °F 62.6 °F 78% 30.07 in 2.5 mi Variable 3.5 mph - N/A   Overcast
2:56 PM 69.1 °F 64.0 °F 84% 30.07 in 3.0 mi SSE 3.5 mph - N/A   Overcast
3:00 PM 69.8 °F 62.6 °F 78% 30.07 in 3.0 mi Calm Calm - N/A   Overcast
3:32 PM 69.8 °F 62.6 °F 78% 30.07 in 3.0 mi East 3.5 mph - N/A   Overcast
3:56 PM 70.0 °F 64.0 °F 81% 30.07 in 3.0 mi Variable 3.5 mph - N/A   Overcast
4:56 PM 70.0 °F 64.0 °F 81% 30.07 in 10.0 mi East 3.5 mph - N/A   Overcast
5:41 PM 71.6 °F 62.6 °F 73% 30.07 in 10.0 mi Variable 3.5 mph - 0.00 in   Overcast
5:56 PM 70.0 °F 62.1 °F 76% 30.08 in 10.0 mi East 4.6 mph - 0.00 in   Mostly Cloudy
6:56 PM 71.1 °F 63.0 °F 75% 30.09 in 10.0 mi Calm Calm - N/A   Mostly Cloudy
7:56 PM 68.0 °F 63.0 °F 84% 30.09 in 10.0 mi Calm Calm - N/A   Scattered Clouds
8:56 PM 66.0 °F 63.0 °F 90% 30.12 in 10.0 mi Calm Calm - N/A   Scattered Clouds
9:56 PM 66.0 °F 62.1 °F 87% 30.15 in 10.0 mi Calm Calm - N/A   Scattered Clouds
10:56 PM 66.0 °F 61.0 °F 84% 30.16 in 10.0 mi ENE 3.5 mph - N/A   Overcast
11:56 PM 66.9 °F 62.1 °F 84% 30.17 in 10.0 mi Calm Calm - N/A   Mostly Cloudy